Location: Savignano sul Rubicone
(44.0950°N, 12.4090°E)
Time: 21:51:35
(UTC+01:00)

N. Korean satellite - Pass Details

Date: 30 October 2019
Orbit: 456 x 506 km, 97.2° (Epoch: 18 November)

Event Time Altitude Azimuth Distance (km) Brightness Sun altitude
Rises 18:25:23 0° 215° (SW) 2,480 10.8 -15.2°
Reaches altitude 10° 18:28:47 10° 253° (WSW) 1,623 10.5 -15.8°
Maximum altitude 18:29:51 11° 270° (W) 1,562 10.5 -16.0°
Drops below altitude 10° 18:30:55 10° 288° (WNW) 1,635 10.3 -16.2°
Sets 18:34:24 0° 325° (NW) 2,535 10.7 -16.8°
